Waarnemingen

Advertentie
Mijn weer
St-Hubert, België (6476): temperatuur & dauwpunt: 12.08.2019 03:00:00 - 18.08.2019 03:00:00 (CEST)St-Hubert, België (6476): windsnelheid & windstoten: 12.08.2019 03:00:00 - 18.08.2019 03:00:00 (CEST)St-Hubert, België (6476): windrichting: 12.08.2019 03:00:00 - 18.08.2019 03:00:00 (CEST)St-Hubert, België (6476): luchtdruk: 12.08.2019 03:00:00 - 18.08.2019 03:00:00 (CEST)St-Hubert, België (6476): zicht: 12.08.2019 03:00:00 - 18.08.2019 03:00:00 (CEST)
Datum & Tijd tt [°C] td [°C] ff [km/u] ff [kn] fx [km/u] fx [kn] dd ppp [hPa] vv [km]
18.08.2019 03:00:00 - - - - - - - - -
18.08.2019 02:00:00 15,7 15,1 11 6 - - ZZW 1008,4 10
18.08.2019 01:00:00 15,6 15,0 14 8 25 14 Z 1008,7 6
18.08.2019 00:00:00 15,5 14,9 14 8 22 12 Z 1009,1 2,7
17.08.2019 23:00:00 15,4 14,9 11 6 - - Z 1009,3 0,8
17.08.2019 22:00:00 15,4 14,9 14 8 22 12 Z 1009,8 1,9
17.08.2019 21:00:00 15,3 14,8 11 6 29 16 ZZW 1009,7 1,1
17.08.2019 20:00:00 15,5 14,9 11 6 - - Z 1009,9 20
17.08.2019 19:00:00 15,5 14,8 14 8 32 18 ZZW 1010,4 4,4
17.08.2019 18:00:00 15,4 14,8 14 8 29 16 ZZW 1010,4 2,4
17.08.2019 17:00:00 15,3 14,7 14 8 - - ZZW 1010,3 2,0
17.08.2019 16:00:00 15,1 14,3 14 8 32 18 ZZW 1010,5 4,7
17.08.2019 15:00:00 15,0 14,2 14 8 32 18 ZZW 1010,6 5
17.08.2019 14:00:00 14,6 13,9 18 10 - - ZZW 1010,9 3,7
17.08.2019 13:00:00 14,7 13,9 18 10 36 19 ZZW 1010,7 4,2
17.08.2019 12:00:00 14,1 13,2 14 8 32 18 ZZW 1011,2 4,1
17.08.2019 11:00:00 13,6 12,8 14 8 - - ZZW 1011,1 5
17.08.2019 10:00:00 13,1 12,0 14 8 29 16 ZZW 1011,4 30
17.08.2019 09:00:00 12,8 11,1 14 8 32 18 ZW 1011,4 29
17.08.2019 08:00:00 12,7 11,3 18 10 - - ZZW 1011,1 20
17.08.2019 07:00:00 14,7 11,1 18 10 29 16 ZZW 1010,4 40
17.08.2019 06:00:00 14,6 10,9 14 8 25 14 ZZW 1010,7 40
17.08.2019 05:00:00 14,9 10,9 14 8 - - ZZW 1010,5 45
17.08.2019 04:00:00 15,4 10,8 11 6 25 14 ZZW 1010,8 40
17.08.2019 03:00:00 15,2 11,1 11 6 25 14 Z 1011,5 45
17.08.2019 02:00:00 15,6 10,2 14 8 - - Z 1011,7 45
17.08.2019 01:00:00 15,9 10,3 11 6 18 10 ZZO 1011,9 45
17.08.2019 00:00:00 15,7 10,6 11 6 18 10 Z 1012,9 45
16.08.2019 23:00:00 15,7 10,6 11 6 - - Z 1013,4 45
16.08.2019 22:00:00 15,7 10,8 11 6 22 12 Z 1013,8 45
16.08.2019 21:00:00 15,6 11,1 7 4 14 8 Z 1013,5 45
16.08.2019 20:00:00 16,6 10,8 11 6 - - ZZW 1013,9 45
16.08.2019 19:00:00 17,1 10,7 11 6 25 14 Z 1014,1 45
16.08.2019 18:00:00 17,6 10,3 11 6 25 14 ZZW 1014,7 35
16.08.2019 17:00:00 18,2 10,9 11 6 - - ZZW 1015,3 35
16.08.2019 16:00:00 17,3 11,1 11 6 25 14 WZW 1016,2 40
16.08.2019 15:00:00 16,7 9,7 14 8 29 16 ZW 1017,1 40
16.08.2019 14:00:00 16,6 10,7 14 8 - - ZW 1017,5 35
16.08.2019 13:00:00 16,2 10,9 11 6 25 14 ZW 1018,0 24
16.08.2019 12:00:00 15,1 10,7 14 8 22 12 WZW 1018,6 35
16.08.2019 11:00:00 13,9 10,9 11 6 - - ZW 1019,0 26
16.08.2019 10:00:00 12,8 10,8 11 6 18 10 ZW 1019,0 19
16.08.2019 09:00:00 11,4 10,5 7 4 18 10 ZZW 1019,5 -
16.08.2019 08:00:00 10,8 10,0 11 6 - - ZW 1019,6 4,6
16.08.2019 07:00:00 10,6 10,0 7 4 18 10 ZW 1019,7 1,5
16.08.2019 06:00:00 10,9 10,2 7 4 14 8 ZW 1019,3 5
16.08.2019 05:00:00 10,6 10,2 7 4 - - WZW 1019,7 0,2
16.08.2019 04:00:00 10,4 9,8 7 4 14 8 ZW 1019,5 3,1
16.08.2019 03:00:00 8,3 7,9 7 4 14 8 WZW 1019,9 0,5
16.08.2019 02:00:00 9,5 8,8 7 4 - - W 1019,8 12
16.08.2019 01:00:00 10,6 9,6 7 4 14 8 WZW 1019,5 16
16.08.2019 00:00:00 11,9 10,5 11 6 18 10 W 1019,2 23
15.08.2019 23:00:00 12,5 10,5 11 6 - - W 1018,6 30
15.08.2019 22:00:00 12,9 10,4 11 6 22 12 W 1017,9 30
15.08.2019 21:00:00 14,0 10,4 11 6 47 25 W 1016,7 35
15.08.2019 20:00:00 15,3 11,4 14 8 - - W 1015,7 30
15.08.2019 19:00:00 15,8 12,5 14 8 36 19 W 1014,8 30
15.08.2019 18:00:00 15,4 12,0 18 10 47 25 W 1014,7 25
15.08.2019 17:00:00 15,6 13,2 18 10 - - WZW 1014,2 30
15.08.2019 16:00:00 13,9 12,5 11 6 36 19 W 1014,3 13
15.08.2019 15:00:00 13,4 12,1 22 12 36 19 W 1014,1 4,8
15.08.2019 14:00:00 16,2 13,4 18 10 - - WZW 1012,7 30
15.08.2019 13:00:00 14,2 12,6 14 8 36 19 W 1013,1 35
15.08.2019 12:00:00 14,7 13,3 22 12 32 18 WZW 1012,4 28
15.08.2019 11:00:00 13,8 12,8 18 10 - - WZW 1012,3 13
15.08.2019 10:00:00 13,6 12,7 14 8 29 16 ZW 1012,1 6
15.08.2019 09:00:00 13,4 12,6 14 8 25 14 ZW 1012,0 7
15.08.2019 08:00:00 13,1 12,4 14 8 - - ZW 1011,9 0,7
15.08.2019 07:00:00 12,9 12,3 14 8 25 14 ZW 1011,8 0,7
15.08.2019 06:00:00 12,8 12,2 14 8 29 16 ZZW 1011,7 1,3
15.08.2019 05:00:00 12,7 12,0 14 8 - - ZW 1012,0 2,6
15.08.2019 04:00:00 12,8 11,9 14 8 36 19 ZW 1012,7 4,0
15.08.2019 03:00:00 14,5 10,7 18 10 32 18 ZZW 1012,6 50
15.08.2019 02:00:00 14,5 10,9 14 8 - - ZZW 1013,2 45
15.08.2019 01:00:00 14,3 11,3 14 8 32 18 ZZW 1013,6 45
15.08.2019 00:00:00 14,2 11,6 14 8 40 21 ZZW 1014,1 30
14.08.2019 23:00:00 14,9 10,8 11 6 - - Z 1014,0 45
14.08.2019 22:00:00 15,5 10,2 14 8 25 14 Z 1014,6 30
14.08.2019 21:00:00 15,9 10,1 7 4 14 8 Z 1014,4 45
14.08.2019 20:00:00 16,8 10,1 11 6 - - Z 1014,6 45
14.08.2019 19:00:00 17,0 10,0 11 6 22 12 Z 1015,3 40
14.08.2019 18:00:00 17,4 9,5 11 6 22 12 Z 1016,0 35
14.08.2019 17:00:00 16,9 9,0 11 6 - - ZZW 1016,7 40
14.08.2019 16:00:00 16,7 9,0 14 8 25 14 ZW 1017,3 35
14.08.2019 15:00:00 16,0 9,2 14 8 29 16 ZZW 1018,0 40
14.08.2019 14:00:00 15,7 9,6 14 8 - - ZZW 1018,3 35
14.08.2019 13:00:00 15,1 9,6 14 8 25 14 Z 1018,8 35
14.08.2019 12:00:00 14,7 10,5 11 6 22 12 ZW 1019,2 35
14.08.2019 11:00:00 13,5 10,2 7 4 - - ZW 1019,8 40
14.08.2019 10:00:00 11,4 9,5 7 4 11 6 ZW 1020,3 21
14.08.2019 09:00:00 9,9 9,2 4 2 11 6 ZZW 1020,6 2,9
14.08.2019 08:00:00 9,1 8,7 7 4 - - Z 1020,6 0,1
14.08.2019 07:00:00 9,1 8,8 4 2 7 4 ZW 1020,5 0,1
14.08.2019 06:00:00 9,5 9,1 4 2 7 4 W 1020,1 0,1
14.08.2019 05:00:00 9,8 9,1 4 2 - - WZW 1020,1 -
14.08.2019 04:00:00 9,5 8,5 4 2 7 4 ZW 1020,4 21
14.08.2019 03:00:00 8,4 7,5 4 2 7 4 ZW 1020,8 35
14.08.2019 02:00:00 - - - - - - - - -
14.08.2019 01:00:00 - - - - - - - - -
14.08.2019 00:00:00 10,4 8,9 7 4 11 6 W 1020,6 40
13.08.2019 23:00:00 10,8 9,0 4 2 - - W 1020,5 45
13.08.2019 22:00:00 11,1 8,9 7 4 18 10 WZW 1020,2 45
13.08.2019 21:00:00 11,7 8,7 11 6 22 12 ZW 1019,8 45
13.08.2019 20:00:00 12,1 9,6 7 4 - - ZW 1019,7 45
13.08.2019 19:00:00 12,1 9,9 7 4 22 12 W 1019,7 35
13.08.2019 18:00:00 11,5 9,6 11 6 22 12 WNW 1020,0 35
13.08.2019 17:00:00 11,7 8,9 14 8 - - NW 1020,0 35
13.08.2019 16:00:00 14,7 7,4 14 8 29 16 WZW 1019,1 35
13.08.2019 15:00:00 16,2 7,4 11 6 29 16 WZW 1018,7 35
13.08.2019 14:00:00 13,7 7,3 11 6 - - WZW 1019,6 45
13.08.2019 13:00:00 12,8 7,3 14 8 32 18 W 1020,1 26
13.08.2019 12:00:00 12,8 7,9 14 8 22 12 ZW 1020,2 40
13.08.2019 11:00:00 13,1 8,5 11 6 - - WZW 1020,1 29
13.08.2019 10:00:00 11,2 9,0 11 6 18 10 WZW 1020,4 21
13.08.2019 09:00:00 9,6 8,4 7 4 18 10 WZW 1020,4 -
13.08.2019 08:00:00 9,0 8,5 7 4 - - WZW 1020,0 0,1
13.08.2019 07:00:00 - - - - - - - - -
13.08.2019 06:00:00 - - - - - - - - -
13.08.2019 05:00:00 - - - - - - - - -
13.08.2019 04:00:00 - - - - - - - - -
13.08.2019 03:00:00 - - - - - - - - -
13.08.2019 02:00:00 - - - - - - - - -
13.08.2019 01:00:00 - - - - - - - - -
13.08.2019 00:00:00 - - - - - - - - -
12.08.2019 23:00:00 - - - - - - - - -
12.08.2019 22:00:00 10,7 9,5 4 2 14 8 ZO 1017,6 45
12.08.2019 21:00:00 11,5 10,6 7 4 14 8 NO 1017,1 28
12.08.2019 20:00:00 12,2 10,1 11 6 - - NO 1016,3 40
12.08.2019 19:00:00 12,1 10,7 4 2 11 6 - 1015,9 23
12.08.2019 18:00:00 11,9 8,3 4 2 36 19 WNW 1015,4 22
12.08.2019 17:00:00 16,9 9,2 14 8 - - WZW 1014,6 45
12.08.2019 16:00:00 17,6 11,8 14 8 32 18 ZW 1014,2 30
12.08.2019 15:00:00 17,0 10,1 14 8 25 14 ZZW 1014,6 35
12.08.2019 14:00:00 16,7 9,1 14 8 - - ZW 1015,2 35
12.08.2019 13:00:00 18,0 11,3 18 10 29 16 ZZW 1015,4 30
12.08.2019 12:00:00 15,8 11,0 11 6 22 12 ZW 1016,3 30
12.08.2019 11:00:00 16,2 10,8 11 6 - - ZW 1016,2 30
12.08.2019 10:00:00 14,0 10,6 7 4 11 6 WZW 1016,6 27
12.08.2019 09:00:00 12,1 10,7 7 4 14 8 Z 1017,2 14
12.08.2019 08:00:00 11,2 10,5 7 4 - - Z 1017,3 4,2
12.08.2019 07:00:00 11,0 10,4 7 4 18 10 Z 1017,5 3,0
12.08.2019 06:00:00 10,9 10,2 7 4 25 14 Z 1017,5 5
12.08.2019 05:00:00 11,1 10,0 7 4 - - Z 1017,4 13
12.08.2019 04:00:00 11,0 9,9 7 4 18 10 Z 1017,5 12
12.08.2019 03:00:00 10,5 9,0 7 4 18 10 Z 1017,7 22

tt = temperatuur
td = dauwpunt
ff = windsnelheid
fx = windstoten
dd = windrichting
ppp = luchtdruk
vv = zicht

Weerstations in de omgeving